Preview of NWS' New Version of Forecast
This preview is not operational and should not be used for support decisions.

Regional Weather Roundup (RWR)

Issued by National Weather Service (NWS)

                            
000
ASUS43 KTOP 201859
RWRKS 

WEATHER ROUNDUP FOR KANSAS
NATIONAL WEATHER SERVICE GOODLAND KS
200 PM CDT TUE AUG 20 2019

NOTE:  "FAIR" INDICATES FEW OR NO CLOUDS BELOW 12,000 FEET WITH NO
SIGNIFICANT WEATHER AND/OR OBSTRUCTIONS TO VISIBILITY.

KSZ001>006-013>018-027>032-041>047-202000-
NORTHWEST KANSAS
  
CITY           SKY/WX    TMP DP  RH WIND       PRES   REMARKS
GOODLAND       FAIR      93  65  39 SE10      30.01F HX  95           
HAYS           FAIR      98  70  40 SW9       30.08S HX 105           
HILL CITY      FAIR      98  66  34 SW7       29.96S HX 101           
RUSSELL        FAIR      96  70  42 S9        29.93F HX 102           
$$

KSZ061>065-074>080-084>089-202000-
SOUTHWEST KANSAS
  
CITY           SKY/WX    TMP DP  RH WIND       PRES   REMARKS
DODGE CITY     FAIR      96  62  32 S14       30.01S HX  97           
GARDEN CITY    FAIR     101  59  24 S20G29    29.99F HX 101           
GREAT BEND     FAIR      95  74  50 S9        29.95F HX 105           
LIBERAL        FAIR      99  59  26 SW21G26   30.03F HX  99           
$$

KSZ066>073-081>083-090>101-202000-
SOUTHEAST KANSAS
  
CITY           SKY/WX    TMP DP  RH WIND       PRES   REMARKS
CHANUTE        FAIR      96  77  54 S12       30.00S HX 111           
COFFEYVILLE    FAIR      93  77  59 S10       29.99S HX 107           
HUTCHINSON     FAIR      99  71  40 S14G23    29.95S HX 107           
MEDICINE LODGE   N/A    102  66  30 S15G22    29.94F HX 106           
NEWTON         FAIR      92  76  59 S16       29.98S HX 104           
PARSONS        FAIR      95  77  55 SW7       30.01S HX 109           
WICHITA INTL   FAIR     101  69  35 S13       29.95F HX 107           
WICHITA JABRA  FAIR      96  73  47 S10       29.96F HX 105           
WICHITA MCCONL FAIR      98  66  34 MISG      29.97S HX 102           
$$

KSZ007>012-019>026-033>040-048>060-102>105-202000-
NORTHEAST KANSAS
  
CITY           SKY/WX    TMP DP  RH WIND       PRES   REMARKS
CONCORDIA      FAIR      94  75  54 SE6       29.95S HX 105           
EMPORIA        FAIR      96  76  52 S14       29.97S HX 109           
LAWRENCE       FAIR      93  76  57 E14G26    30.01R HX 105           
MANHATTAN      FAIR      93  79  63 NE8       29.95R HX 110           
OLATHE IND     FAIR      89  75  63 E16G25    30.04R HX  99           
OLATHE EXE     FAIR      86  74  67 E14G25    30.04R                  
SALINA         FAIR      99  72  41 S12       29.93S HX 108           
TOPEKA BILLARD FAIR      88  76  67 E12       29.99R HX  99           
TOPEKA FORBES  FAIR      92  76  59 E16       30.00R HX 104           
$$